www.pogodaiklimat.ru
ПОГОДА в Ботошани
Время
(UTC), дата
04 28.06
05 28.06
06 28.06
07 28.06
08 28.06
09 28.06
10 28.06
11 28.06
12 28.06
13 28.06
14 28.06
15 28.06
16 28.06
17 28.06
18 28.06
19 28.06
20 28.06
21 28.06
22 28.06
23 28.06
00 29.06
01 29.06
02 29.06
03 29.06
04 29.06
05 29.06
06 29.06
07 29.06
08 29.06
09 29.06
10 29.06
11 29.06
12 29.06
13 29.06
14 29.06
15 29.06
16 29.06
17 29.06
18 29.06
19 29.06
20 29.06
21 29.06
22 29.06
23 29.06
00 30.06
01 30.06
02 30.06
03 30.06
04 30.06
05 30.06
06 30.06
07 30.06
08 30.06
09 30.06
10 30.06
11 30.06
12 30.06
13 30.06
14 30.06
15 30.06
16 30.06
17 30.06
18 30.06
19 30.06
20 30.06
21 30.06
22 30.06
23 30.06
00 1.07
01 1.07
02 1.07
03 1.07
04 1.07
05 1.07
06 1.07
07 1.07
08 1.07
09 1.07
10 1.07
11 1.07
12 1.07
13 1.07
14 1.07
15 1.07
16 1.07
17 1.07
18 1.07
19 1.07
20 1.07
21 1.07
22 1.07
23 1.07
00 2.07
01 2.07
02 2.07
03 2.07
04 2.07
05 2.07
06 2.07
07 2.07
08 2.07
09 2.07
10 2.07
11 2.07
12 2.07
13 2.07
14 2.07
15 2.07
16 2.07
17 2.07
18 2.07
19 2.07
20 2.07
21 2.07
22 2.07
23 2.07
00 3.07
01 3.07
02 3.07
03 3.07
04 3.07
05 3.07
06 3.07
07 3.07
08 3.07
09 3.07
10 3.07
11 3.07
12 3.07
13 3.07
14 3.07
15 3.07
16 3.07
17 3.07
18 3.07
19 3.07
20 3.07
21 3.07
22 3.07
23 3.07
00 4.07
01 4.07
02 4.07
03 4.07
04 4.07
05 4.07
06 4.07
07 4.07
08 4.07
09 4.07
10 4.07
11 4.07
12 4.07
13 4.07
14 4.07
15 4.07
16 4.07
17 4.07
18 4.07
19 4.07
20 4.07
21 4.07
22 4.07
23 4.07
00 5.07
01 5.07
02 5.07
03 5.07
04 5.07
05 5.07
Ветер
(напр.,м/с)
Видим. Явления Облачность Т
(С)
Тd
(С)
f
(%)
Тe
(С)
Тes
(С)
Комфортность P
(гПа)
Po
(гПа)
Тmin
(С)
Tmax
(С)
R
(мм)
R24
(мм)
S
(см)
СЗ 1 н/о н/о +17.9 +15.6 86 +19 +19 1015.3 996.2
З 1-2
{3}
10 км 4/0
[Ac trans Ci fib]
+20.5 +16.5 78 +25 +28 комфорт 1015.2 996.2
З 1-1
{1}
10 км 5/0
[Ac trans Ci fib]
+24.2 +19.1 73 +29 +35 душно 1015.0 996.2 +16.9 +25.9
ЮЗ 1-2
{3}
10 км 8/0
[Ac As Ci sp]
+25.7 +18.1 63 +30 +38 душно 1014.9 996.2
штиль 0-1
{3}
10 км 6/0
[Ac As Ci sp]
+27.6 +18.6 58 +33 +45 очень
душно
1014.4 995.9
З 1-4
{4}
10 км 5/1 600 м
[Cu med, cong Ac trans Ci sp]
+28.6 +18.5 54 +33 +48 очень
душно
1014.3 995.8
З 2-5
{5}
10 км 5/3 600 м
[Cu med, cong Ac trans]
+29.6 +19.0 53 +35 +46 очень
душно
1014.1 995.7
ЮВ 1-2
{5}
10 км 4/3 600 м
[Cu med, cong Ac trans]
+29.1 +16.4 46 +32 +46 душно 1013.7 995.3
ЮВ 2-4
{4}
10 км 5/3 600 м
[Cu med, cong Ac lent]
+29.9 +18.0 49 +34 +43 очень
душно
1013.0 994.6
З 1-3
{5}
10 км 6/4 600 м
[Cb calv Ac As]
+30.9 +18.5 48 +36 +43 очень
душно
1012.5 994.2
Ю 2-4
{4}
10 км 6/4 600 м
[Cb calv Ac As]
+30.5 +19.0 50 +36 +40 очень
душно
1012.1 993.8
З 2-4
{4}
10 км 8/5 600 м
[Cb calv Ac As]
+30.3 +19.4 52 +36 +38 очень
душно
1011.8 993.4
СЗ 2-4
{8}
10 км гроза без осадков {ливн. дождь} 6/4 600 м
[Cb cap Ac As]
+22.8 +19.6 82 +29 +30 очень
душно
1012.8 994.0 4
СЗ 2-4
{4}
10 км в посл. час гроза 8/4 600 м
[Cb calv Ac As]
+25.3 +18.5 66 +30 +30 душно 1012.7 994.1
З 1-2
{4}
10 км {гроза, ливн. дождь} 6/3 600 м
[Cb calv Ac As]
+23.9 +20.0 79 +29 +29 душно 1012.8 994.0 +21.9 +31.3 4
З 1-1
{1}
10 км 6/3 600 м
[Sc diur, vesp Ac As]
+22.4 +19.8 85 +28 +28 душно 1012.7 993.9
штиль 0 н/о н/о +21.6 +19.8 89 +27 +27 душно 1012.6 993.7
штиль 0 н/о н/о +20.5 +19.5 94 +24 +24 комфорт 1012.6 993.6
штиль 0 н/о н/о +20.3 +19.4 95 +24 +24 комфорт 1012.4 993.4
ЮВ 1 н/о н/о +20.0 +19.5 97 +25 +25 комфорт 1011.9 992.9
СЗ 1 н/о н/о +19.6 +18.8 95 +23 +23 комфорт 1012.0 993.0
СЗ 1 н/о н/о +19.4 +18.7 96 +23 +23 комфорт 1012.2 993.2
СЗ 1 н/о н/о +18.8 +18.2 96 +21 +21 комфорт 1012.2 993.2
штиль 0 н/о н/о +18.4 +18.1 98 +19 +19 1012.0 992.9
штиль 0 н/о н/о +19.0 +18.4 96 +21 +21 комфорт 1011.7 992.7
штиль 0-1
{1}
10 км 1/0
[Ac trans]
+22.0 +18.5 81 +27 +32 душно 1011.5 992.6
З 1-2
{2}
10 км 1/0
[Ac trans]
+24.4 +19.2 73 +29 +37 душно 1011.2 992.5 +18.2 +24.5 3.7
З 3-5
{5}
10 км ясно +26.0 +19.1 66 +31 +40 очень
душно
1011.0 992.4
СЗ 2-4
{6}
10 км 1/1 600 м
[Cu hum]
+27.5 +19.0 60 +33 +46 очень
душно
1010.6 992.2
СЗ 2-4
{5}
10 км 4/4 600 м
[Cu med, cong]
+28.1 +19.6 60 +34 +44 очень
душно
1010.4 992.0
З 2-5
{6}
10 км 5/5 600 м
[Cu med, cong]
+29.5 +20.7 59 +37 +46 очень
душно
1009.9 991.6
СЗ 2-5
{5}
10 км 6/5 600 м
[Cb calv Ac As]
+29.5 +19.2 54 +35 +43 очень
душно
1009.5 991.1
С 1-5
{5}
10 км 6/4 600 м
[Cb calv Ac As]
+29.3 +19.1 54 +35 +43 очень
душно
1008.8 990.4
СЗ 1 10 км 5/3 600 м
[Cb calv Ac As]
+30.4 +19.9 53 +37 +45 очень
душно
1008.0 989.8
СЗ 1-4
{5}
10 км 5/3 600 м
[Cb calv Ac As]
+30.3 +17.6 47 +35 +40 очень
душно
1007.5 989.3
З 2-4
{5}
10 км 5/3 600 м
[Cb calv Ac As]
+30.7 +20.7 55 +38 +41 очень
душно
1007.4 989.1
З 2-3
{4}
10 км 5/3 600 м
[Cu med, cong Ac As]
+28.2 +18.5 56 +33 +35 очень
душно
1007.4 989.0
ЮЗ 4-6
{6}
10 км 6/1 600 м
[Sc diur, vesp Ac As Cs]
+26.5 +19.1 64 +32 +32 очень
душно
1006.8 988.3
З 2-4
{4}
10 км 8/1 600 м
[Sc diur, vesp Ac As Cs]
+26.2 +19.4 66 +32 +32 очень
душно
1006.8 988.3 +24.4 +31.0
Ю 2-2
{2}
10 км 4/0
[Ac As]
+24.5 +19.4 73 +30 +30 очень
душно
1007.1 988.5
В 1 н/о н/о +23.7 +19.6 78 +29 +29 душно 1007.0 988.4
ЮВ 1 н/о н/о +22.9 +19.6 82 +29 +29 очень
душно
1007.0 988.3
Ю 1 н/о н/о +22.6 +19.3 82 +29 +29 очень
душно
1006.9 988.1
ЮЗ 1 н/о н/о +21.8 +19.1 85 +27 +27 душно 1006.4 987.6
ЮВ 1 н/о н/о +21.3 +18.6 85 +26 +26 душно 1006.2 987.5
З 4 н/о н/о +20.8 +18.3 86 +25 +25 комфорт 1007.3 988.4
СЗ 4 н/о н/о +21.4 +16.8 75 +25 +25 комфорт 1007.2 988.4
СЗ 2 н/о н/о +20.0 +17.0 83 +23 +23 комфорт 1007.7 988.9
СЗ 3 н/о н/о +20.4 +17.4 83 +24 +24 комфорт 1008.5 989.6
СЗ 4-7
{9}
10 км 9/5 600 м
[Cb calv Ac As]
+20.5 +17.6 83 +24 +25 комфорт 1009.6 990.7
СЗ 4-9
{9}
10 км 9/5 600 м
[Cb calv Ac As Ci fib]
+21.5 +17.4 77 +26 +27 душно 1010.0 991.1 +19.8 +26.2
СЗ 4-7
{9}
10 км 9/5 600 м
[Cu med, cong Ac As]
+20.8 +16.5 76 +24 +26 комфорт 1010.7 991.8
СЗ 4-10
{10}
10 км 9/5 600 м
[Cu med, cong Ac As]
+20.7 +16.2 75 +24 +26 комфорт 1011.2 992.3
СЗ 5-9
{10}
10 км 9/4 600 м
[Cu med, cong Ac As Ci fib]
+21.5 +16.2 72 +25 +28 комфорт 1011.4 992.6
СЗ 4-8
{10}
10 км 8/5 600 м
[Cu med, cong Ci fib]
+23.3 +16.4 65 +28 +33 душно 1011.5 992.7
СЗ 4-9
{9}
10 км 6/6 600 м
[Cu med, cong]
+23.7 +15.5 60 +27 +32 жарко 1011.6 992.9
СЗ 3-7
{9}
10 км 6/6 600 м
[Cu med, cong]
+24.3 +16.0 60 +28 +33 душно 1011.3 992.7
СЗ 3-7
{7}
10 км 6/6 600 м
[Cu med, cong]
+25.0 +16.2 58 +28 +33 жарко 1011.2 992.5
СЗ 2-5
{7}
10 км 9/6 600 м
[Cu med, cong Ac As]
+24.5 +14.7 54 +27 +29 жарко 1011.2 992.5
СЗ 1-4
{7}
10 км 9/6 600 м
[Cu med, cong Ac As]
+24.4 +15.9 59 +28 +29 душно 1011.0 992.3
СЗ 1-4
{5}
10 км 5/4 600 м
[Cu med, cong Ac cuf]
+25.5 +15.4 54 +29 +30 душно 1011.0 992.4
СВ 1-2
{4}
10 км 5/4 600 м
[Cu med, cong Ac cuf]
+25.0 +14.5 52 +28 +28 жарко 1011.3 992.7
Ю 1-2
{2}
10 км 8/5 600 м
[Cb calv Ac As]
+23.0 +14.9 60 +27 +27 душно 1011.8 993.0 +20.0 +25.9
штиль 0-1
{1}
10 км 8/5 600 м
[Cb calv Ac As]
+21.2 +15.9 72 +25 +25 комфорт 1012.3 993.4
СЗ 1 н/о н/о +20.8 +18.0 84 +26 +26 душно 1012.8 993.8
СЗ 1 н/о н/о +21.0 +16.9 77 +26 +26 душно 1013.2 994.2
СЗ 1 н/о н/о +20.7 +17.3 81 +25 +25 комфорт 1013.5 994.5
З 1 н/о н/о +19.8 +17.4 86 +24 +24 комфорт 1013.7 994.7
СЗ 1 н/о н/о +20.1 +15.4 74 +24 +24 комфорт 1013.7 994.7
С 1 н/о н/о +19.6 +16.3 81 +23 +23 комфорт 1013.9 994.8
В 1 н/о н/о +19.5 +16.8 84 +23 +23 комфорт 1013.9 994.9
СЗ 1 н/о н/о +18.2 +16.9 92 +20 +20 1014.2 995.0
З 1 н/о н/о +18.2 +16.6 90 +20 +20 1014.6 995.4
ЮЗ 1-1
{2}
10 км ясно +20.6 +16.8 79 +25 +30 комфорт 1014.7 995.7
ЮЗ 1-3
{3}
10 км ясно +22.3 +16.6 70 +27 +35 душно 1014.6 995.8 +17.4 +23.2
ЮЗ 1-3
{3}
10 км ясно +23.7 +16.0 62 +27 +40 жарко 1014.6 995.8
В 1-3
{3}
10 км ясно +24.8 +15.8 57 +28 +45 жарко 1014.4 995.7
штиль 0-3
{3}
10 км 1/1 600 м
[Cu med, cong]
+26.1 +15.6 52 +29 +50 жарко 1014.4 995.8
Ю 1-3
{4}
10 км 3/3 600 м
[Cu med, cong]
+26.9 +14.2 46 +29 +44 жарко 1014.1 995.5
ЮЗ 2-4
{5}
10 км 5/5 600 м
[Cu med, cong]
+27.9 +14.1 43 +30 +39 жарко 1013.9 995.4
Ю 2-4
{5}
10 км 5/4 600 м
[Cu med, cong Ac cuf]
+28.1 +15.0 45 +31 +39 душно 1013.5 995.0
З 1-2
{4}
10 км 6/6 600 м
[Cu med, cong]
+28.7 +12.5 37 +30 +36 жарко 1013.2 994.8
З 2-3
{3}
10 км 6/4 600 м
[Cu med, cong Ac cuf Ci fib]
+29.1 +15.7 44 +32 +36 душно 1013.0 994.5
З 1-3
{3}
10 км 5/4 600 м
[Cu med, cong Ci fib]
+29.3 +15.7 44 +32 +36 душно 1012.7 994.2
В 1-2
{3}
10 км 3/3 600 м
[Cu med, cong]
+28.5 +13.2 39 +30 +32 жарко 1012.4 994.0
ЮВ 1-2
{2}
10 км 3/3 600 м
[Cu med, cong]
+28.2 +14.5 43 +30 +31 жарко 1012.6 994.1
ЮВ 1-2
{3}
10 км 1/1 600 м
[Sc diur, vesp]
+26.4 +15.8 52 +30 +30 душно 1012.7 994.2 +22.4 +29.7
ЮВ 1-1
{2}
10 км 1/1 600 м
[Sc diur, vesp]
+24.1 +16.6 63 +28 +28 душно 1013.0 994.3
штиль 0 н/о н/о +21.5 +17.4 77 +26 +26 душно 1013.4 994.5
штиль 0 н/о н/о +19.8 +17.5 87 +22 +22 комфорт 1013.8 994.8
штиль 0 н/о н/о +19.0 +17.2 89 +20 +20 1013.8 994.7
штиль 0 н/о н/о +17.8 +16.7 93 +18 +18 1013.9 994.7
штиль 0 н/о н/о +17.4 +16.4 94 +17 +17 1013.8 994.6
штиль 0 н/о н/о +17.2 +16.3 94 +17 +17 1013.6 994.4
ЮВ 1 н/о н/о +17.2 +16.2 94 +18 +18 1013.2 994.1
В 1 н/о н/о +17.2 +15.8 91 +18 +18 1013.1 993.9
штиль 0 н/о н/о +17.3 +15.6 90 +17 +17 1013.5 994.3
З 1-1
{2}
10 км ясно +18.7 +16.2 85 +21 +25 комфорт 1013.6 994.5
Ю 1-1
{1}
10 км ясно +23.7 +16.2 63 +27 +35 жарко 1013.2 994.5 +16.8 +26.4
ЮВ 2-3
{3}
10 км ясно +25.5 +16.5 57 +29 +40 душно 1012.8 994.1
ЮВ 2-4
{5}
10 км 3/1 600 м
[Cu med, cong Ci fib]
+26.7 +18.4 60 +31 +44 душно 1012.6 994.0
В 3-6
{6}
10 км 3/1 600 м
[Cu med, cong Ci fib]
+28.5 +17.3 51 +33 +45 очень
душно
1012.2 993.7
ЮВ 3-6
{7}
10 км 3/1 600 м
[Cu med, cong Ci fib]
+28.8 +17.7 51 +33 +46 очень
душно
1012.0 993.6
ЮВ 3-7
{7}
10 км 3/1 600 м
[Cu med, cong Ci fib]
+29.9 +18.5 50 +35 +47 очень
душно
1011.6 993.2
ЮВ 4-7
{7}
10 км 3/1 600 м
[Cu med, cong Ci fib]
+30.6 +17.3 45 +35 +44 очень
душно
1011.1 992.8
ЮВ 3-5
{8}
10 км 3/1 600 м
[Cu med, cong Ci fib]
+30.8 +16.8 43 +34 +43 очень
душно
1010.6 992.3
ЮВ 2-6
{8}
10 км 3/1 600 м
[Cu med, cong Ci fib]
+31.1 +17.3 44 +35 +43 очень
душно
1010.1 991.9
ЮВ 3-6
{8}
10 км 3/1 600 м
[Cu med, cong Ci fib]
+30.9 +16.6 42 +34 +38 душно 1009.8 991.6
ЮВ 3-7
{7}
10 км 3/1 600 м
[Cu med, cong Ci fib]
+30.6 +16.9 44 +34 +36 очень
душно
1009.5 991.2
ЮВ 3-5
{6}
10 км 3/1 600 м
[Cu med, cong Ci fib]
+29.9 +16.9 46 +34 +34 очень
душно
1009.5 991.1
ЮВ 1-2
{5}
10 км 4/0
[Ac lent Ci fib]
+28.3 +18.4 55 +33 +33 очень
душно
1009.6 991.2 +23.6 +31.2
В 1-2
{3}
10 км 3/0
[Ac lent Ci fib]
+26.4 +17.3 57 +30 +30 душно 1009.8 991.3
В 2 н/о н/о +25.0 +16.9 61 +29 +29 душно 1009.8 991.1
ЮВ 1 н/о н/о +22.9 +18.1 74 +28 +28 душно 1010.1 991.3
ЮВ 1 н/о н/о +22.3 +17.6 75 +27 +27 душно 1009.7 990.9
В 1 н/о н/о +21.9 +17.2 75 +26 +26 душно 1009.8 991.0
В 1 н/о н/о +20.1 +17.7 86 +24 +24 комфорт 1009.6 990.7
В 2 н/о н/о +20.2 +16.9 81 +24 +24 комфорт 1009.6 990.7
СВ 1 н/о н/о +19.6 +16.4 82 +23 +23 комфорт 1009.6 990.6
СЗ 1 н/о н/о +19.1 +16.7 86 +22 +22 комфорт 1010.2 991.2
ЮВ 1 н/о н/о +19.5 +16.7 84 +23 +23 комфорт 1010.4 991.4
ЮВ 1-1
{2}
10 км 4/0
[Ac cast Ci fib]
+23.0 +17.0 69 +28 +31 душно 1010.4 991.6
З 2-5
{5}
10 км 4/3 600 м
[Cu med, cong Ac cast]
+23.6 +18.6 74 +28 +33 душно 1010.8 992.1 +18.9 +28.2
штиль 0-2
{4}
10 км 1/1 600 м
[Cu med, cong]
+26.3 +19.7 67 +32 +45 очень
душно
1010.3 991.8
СЗ 2-4
{4}
10 км 4/3 600 м
[Cu med, cong Ac cast]
+27.2 +19.0 61 +32 +42 очень
душно
1010.1 991.6
ЮВ 1-3
{4}
10 км 3/3 600 м
[Cu med, cong]
+27.3 +20.1 65 +34 +48 очень
душно
1010.1 991.7
СВ 1-2
{4}
10 км 5/4 600 м
[Cu med, cong Ci fib]
+29.2 +19.7 57 +35 +48 очень
душно
1010.0 991.7
ЮВ 1-3
{3}
10 км 8/4 600 м
[Cb calv Ac As]
+27.6 +19.3 61 +33 +40 очень
душно
1009.9 991.4
ЮЗ 1-1
{3}
10 км гроза без осадков 8/4 600 м
[Cb cap Ac As]
+28.1 +20.2 62 +34 +40 очень
душно
1009.7 991.3
ЮЗ 1-2
{2}
10 км гроза, ливневой дождь 10/5 600 м
[Cb cap Ac As]
+27.5 +21.6 70 +35 +37 очень
душно
1009.5 991.0 0.3
СЗ 5-8
{12}
10 км гроза без осадков 9/5 600 м
[Cb cap Ac As]
+22.3 +17.5 74 +27 +28 душно 1010.8 992.0
СЗ 3-5
{6}
10 км в посл. час гроза {ливн. дождь} 8/4 600 м
[Cb calv Ac As]
+24.7 +18.2 67 +29 +31 душно 1010.2 991.6 0.3
СЗ 2-3
{5}
10 км 9/4 600 м
[Cb calv Ac As]
+24.3 +18.2 69 +29 +29 душно 1010.1 991.4
З 2-4
{4}
10 км 9/4 600 м
[Cb calv Ac As]
+23.0 +19.2 79 +29 +29 очень
душно
1010.7 992.0
СЗ 2-4
{5}
10 км {гроза, ливн. дождь} 9/4 600 м
[Cb calv Ac As]
+22.0 +18.7 82 +27 +27 душно 1010.4 991.6 +22.0 +29.4
З 1-3
{5}
10 км 10/4 600 м
[Cb calv Ac As]
+21.0 +19.0 88 +27 +27 душно 1011.5 992.6
СЗ 1 н/о н/о +21.0 +19.3 90 +27 +27 душно 1012.1 993.2 0.1
СЗ 1 н/о н/о +21.2 +19.2 88 +26 +26 душно 1012.4 993.5 0.1
СЗ 2 н/о н/о +21.0 +18.9 88 +26 +26 душно 1012.7 993.8
СЗ 1 н/о н/о +20.5 +19.3 93 +26 +26 душно 1013.0 994.0 0.1
СЗ 2 н/о н/о +20.6 +19.7 95 +26 +26 душно 1013.1 994.1 1
СЗ 3 н/о н/о +20.3 +19.3 94 +24 +24 комфорт 1013.4 994.4
СЗ 3 н/о н/о +19.9 +19.0 95 +23 +23 комфорт 1013.8 994.8 0.2
СЗ 4 н/о н/о +19.3 +17.8 91 +21 +21 комфорт 1013.9 994.9 0.2
СЗ 3 н/о н/о +19.2 +17.6 90 +21 +21 комфорт 1014.2 995.1
СЗ 3-6
{6}
10 км 10/6 600 м
[Sc Ac As]
+19.6 +17.8 89 +22 +23 комфорт 1014.7 995.6
СЗ 3-7
{7}
10 км 10/6 600 м
[Sc Ac As]
+20.5 +18.0 86 +24 +25 комфорт 1014.8 995.9 +19.1 +21.9 1.5
СЗ 3-6
{9}
10 км 9/5 600 м
[Sc Ac As]
+21.2 +18.0 82 +25 +27 комфорт 1015.1 996.1
СЗ 3-6
{8}
10 км 9/5 600 м
[Sc Ac As]
+21.7 +18.5 82 +26 +29 душно 1015.2 996.3
СЗ 3-6
{7}
10 км 9/6 600 м
[Cu Sc Ac As]
+23.4 +19.1 77 +30 +33 очень
душно
1015.2 996.4
СЗ 3-6
{7}
10 км 10/5 600 м
[Cb calv Ac As]
+23.3 +18.7 75 +29 +32 душно 1015.3 996.5
СЗ 3-6
{7}
10 км 10/5 600 м
[Cb calv Ac As]
+23.5 +18.3 73 +28 +30 душно 1015.5 996.7
СЗ 2-5
{6}
10 км 10/5 600 м
[Cb calv Ac As]
+23.3 +18.7 75 +29 +32 душно 1015.2 996.4
СЗ 3-7
{8}
10 км 10/5 600 м
[Cb calv Ac As]
+22.2 +19.3 84 +28 +29 душно 1015.3 996.4
СЗ 3-5
{6}
10 км 10/5 600 м
[Cb calv Ac As]
+23.1 +18.8 77 +29 +30 очень
душно
1015.0 996.2
СЗ 2-5
{5}
10 км в посл. час дождь 9/4 600 м
[Cb calv Ac As]
+24.3 +18.8 71 +29 +30 душно 1014.7 995.9 0.1
СЗ 3-6
{7}
10 км 9/4 600 м
[Cb calv Ac As]
+23.9 +18.1 70 +28 +29 душно 1014.4 995.6
СЗ 2-4
{6}
10 км 9/4 600 м
[Sc diur, vesp Ac As]
+23.9 +18.8 73 +29 +29 душно 1014.5 995.7
СЗ 3-6
{6}
10 км {дождь} 9/3 <50 м
[Sc diur, vesp Ac As]
+22.9 +18.5 76 +29 +29 очень
душно
1014.5 995.6 +20.5 +24.9
СЗ 3-6
{6}
10 км 9/3 600 м
[Sc diur, vesp Ac As]
+22.1 +18.4 80 +27 +27 душно 1014.8 995.9
З 3 н/о н/о +21.0 +18.4 85 +26 +26 душно 1015.2 996.2
СЗ 3 н/о н/о +20.7 +18.0 85 +25 +25 комфорт 1015.5 996.5
СЗ 2 н/о н/о +20.1 +17.9 87 +24 +24 комфорт 1015.5 996.5
СЗ 2 н/о н/о +19.6 +17.9 90 +23 +23 комфорт 1015.4 996.4
З 2 н/о н/о +18.8 +17.7 93 +21 +21 комфорт 1015.3 996.2
СЗ 2 н/о н/о +18.7 +17.3 92 +20 +20 1015.2 996.0
СЗ 2 н/о н/о +18.2 +16.9 92 +19 +19 1015.0 995.8
СЗ 2 н/о н/о +17.7 +16.4 92 +18 +18 1015.1 996.0
СЗ 3 н/о н/о +18.5 +16.4 88 +19 +19 1015.5 996.4
СЗ 2-4
{5}
10 км 1/0
[Ac trans]
+19.9 +17.2 84 +23 +27 комфорт 1015.8 996.8
Местоположение метеостанции Ботошани (Румыния): широта 47.73 долгота 26.65 высота над уровнем моря 162 м.
В архиве по умолчанию представлена погода в Ботошани за последнюю неделю. Архивные данные за месяц целиком и за предыдущие месяцы, начиная с января 2011 года, Вы можете получить, выбрав интересующий диапазон дат из раскрывающегося списка и нажав кнопку "Найти!".
*Определитесь, кто Вы:
Внимание! Время в таблицах - всемирное. Для получения местного времени необходимо прибавить поправку, которая равна 2 ч.
Смотрите также архив погоды в соседних городах и на ближайших метеорологических станциях:
Партнеры нашего сайта:      
Пояснения к столбцам:
  • Ветер - указаны скорость ветра в м/с - средняя за 10 мин, порывы в срок и между сроками (в фигурных скобках) и направление, откуда дует ветер: С - северный,
  • СВ - северо-восточный, В - восточный, ЮВ - юго-восточный, Ю - южный, ЮЗ - юго-западный, З - западный, СЗ - северо-западный.
  • Видимость - горизонтальная дальность видимости в метрах или километрах. При видимости от 1 до 10 км при отсутствии осадков обычно наблюдается дымка, при ухудшении видимости до 1 км и менее - туман. В сухую погоду видимость может ухудшаться дымом, пылью или мглою.
  • Явления - указаны атмосферные явления, наблюдавшиеся в срок или в последний час перед сроком; фигурными скобками обозначены явления, наблюдавшиеся между сроками (за 1-3 часа до срока); квадратными скобками обозначены град или гололедные отложения с указанием их диаметра в мм.
  • Облачность - указаны через наклонную черту общая и нижняя облачность в баллах и высота нижней границы облаков в метрах; квадратными скобками обозначены формы облаков: Ci - перистые, Cs - перисто-слоистые, Cc - перисто-кучевые, Ac - высококучевые, As - высокослоистые, Sc - слоисто-кучевые, Ns - слоисто-дождевые, Cu - кучевые, Cb - кучево-дождевые. Подробнее классификацию облаков см. в Атласе облаков (PDF).
  • T - Температура воздуха - температура, измеренная на высоте 2 м над землей.
  • Td - Температура точки росы - температура, при понижении до которой содержащийся в воздухе водяной пар достигнет насыщения.
  • f - Относительная влажность воздуха - влажноcть воздуха, измеренная на высоте 2 м над землей.
  • Te - Эффективная температура - температура, которую ощущает одетый по сезону человек в тени. Характеристика душности погоды. При расчете учитывается влияние влажности воздуха и скорости ветра на теплоощущения человека.
  • Tes - Эффективная температура на солнце - температура, которую ощущает человек, с поправкой на солнечный нагрев. Характеристика знойности погоды. Зависит от высоты солнца над горизонтом, облачности и скорости ветра. Ночью, в пасмурную погоду, а также при ветре 12 м/с и более поправка равна нулю.
  • P - Атмосферное давление - приведенное к уровню моря атмосферное давление.
  • Po - Атмосферное давление - измеренное на уровне метеостанции атмосферное давление.
  • Tmin - Минимальная температура - минимум температуры воздуха на высоте 2 м над землей.
  • Tmax - Максимальная температура - максимум температуры воздуха на высоте 2 м над землей.
  • R - Количество осадков - Количество выпавших осадков за период времени, мм. При наведении курсора мыши на число - период времени, за который выпало указанное количество осадков.
  • R24 - Количество осадков - Количество выпавших осадков за 24 часа, мм.
  • S - Снежный покров - Высота снежного покрова, см. При наведении курсора мыши на число - состояние снежного покрова и степень покрытия местности в баллах.